Time,TemperatureF,DewpointF,PressureIn,WindDirection,WindDirectionDegrees,WindSpeedMPH,WindSpeedGustMPH,Humidity,HourlyPrecipIn,Conditions,Clouds,dailyrainin,SoftwareType,DateUTC
2013-03-15 00:10:00,29.5,19.9,29.98,NNE,22,1.7,-999.0,67,-99.99,,,0.00,Acu-Link.com,2013-03-15 04:10:00,
2013-03-15 00:25:00,29.5,20.3,29.98,NW,315,0.0,-999.0,68,-99.99,,,0.00,Acu-Link.com,2013-03-15 04:25:00,
2013-03-15 00:40:00,29.5,20.6,29.97,ESE,112,0.0,-999.0,69,-99.99,,,0.00,Acu-Link.com,2013-03-15 04:40:00,
2013-03-15 00:55:00,29.1,20.9,29.97,WSW,247,1.7,-999.0,71,-99.99,,,0.00,Acu-Link.com,2013-03-15 04:55:00,
2013-03-15 01:10:00,29.3,20.8,29.96,ENE,67,1.1,-999.0,70,-99.99,,,0.00,Acu-Link.com,2013-03-15 05:10:00,
2013-03-15 01:25:00,29.7,20.5,29.96,WSW,247,1.1,-999.0,68,-99.99,,,0.00,Acu-Link.com,2013-03-15 05:25:00,
2013-03-15 01:40:00,30.0,20.4,29.96,West,270,0.0,-999.0,67,-99.99,,,0.00,Acu-Link.com,2013-03-15 05:40:00,
2013-03-15 01:55:00,30.2,20.6,29.95,West,270,1.1,-999.0,67,-99.99,,,0.00,Acu-Link.com,2013-03-15 05:55:00,
2013-03-15 02:10:00,30.6,21.0,29.94,NW,315,1.7,-999.0,67,-99.99,,,0.00,Acu-Link.com,2013-03-15 06:10:00,
2013-03-15 02:26:00,30.7,21.4,29.94,East,90,1.7,-999.0,68,-99.99,,,0.00,Acu-Link.com,2013-03-15 06:26:00,
2013-03-15 02:41:00,31.1,22.1,29.93,SSE,157,0.0,-999.0,69,-99.99,,,0.00,Acu-Link.com,2013-03-15 06:41:00,
2013-03-15 03:26:00,31.8,24.5,29.92,SSW,202,1.1,-999.0,74,-99.99,,,0.00,Acu-Link.com,2013-03-15 07:26:00,
2013-03-15 03:41:00,32.0,25.3,29.91,West,270,0.0,-999.0,76,-99.99,,,0.00,Acu-Link.com,2013-03-15 07:41:00,
2013-03-15 03:57:00,32.0,25.9,29.90,NNW,337,1.7,-999.0,78,-99.99,,,0.00,Acu-Link.com,2013-03-15 07:57:00,
2013-03-15 04:12:00,32.0,26.5,29.90,NNE,22,1.7,-999.0,80,-99.99,,,0.00,Acu-Link.com,2013-03-15 08:12:00,
2013-03-15 04:27:00,32.2,27.3,29.89,ESE,112,1.7,-999.0,82,-99.99,,,0.00,Acu-Link.com,2013-03-15 08:27:00,
2013-03-15 04:42:00,32.2,27.6,29.88,SW,225,1.1,-999.0,83,-99.99,,,0.00,Acu-Link.com,2013-03-15 08:42:00,
2013-03-15 04:57:00,32.2,27.6,29.87,SSW,202,1.7,-999.0,83,-99.99,,,0.00,Acu-Link.com,2013-03-15 08:57:00,
2013-03-15 05:12:00,32.4,28.1,29.86,ENE,67,3.7,-999.0,84,-99.99,,,0.00,Acu-Link.com,2013-03-15 09:12:00,
2013-03-15 05:27:00,32.4,28.1,29.85,SSE,157,2.2,-999.0,84,-99.99,,,0.00,Acu-Link.com,2013-03-15 09:27:00,
2013-03-15 05:42:00,32.5,28.5,29.84,South,180,1.7,-999.0,85,-99.99,,,0.00,Acu-Link.com,2013-03-15 09:42:00,
2013-03-15 05:57:00,32.5,28.5,29.84,ESE,112,1.1,-999.0,85,-99.99,,,0.00,Acu-Link.com,2013-03-15 09:57:00,
2013-03-15 06:13:00,32.7,28.7,29.83,West,270,2.2,-999.0,85,-99.99,,,0.00,Acu-Link.com,2013-03-15 10:13:00,
2013-03-15 06:28:00,32.9,28.9,29.83,WNW,292,3.7,-999.0,85,-99.99,,,0.00,Acu-Link.com,2013-03-15 10:28:00,
2013-03-15 06:43:00,32.9,28.9,29.83,ESE,112,1.7,-999.0,85,-99.99,,,0.00,Acu-Link.com,2013-03-15 10:43:00,
2013-03-15 06:58:00,33.1,29.1,29.83,SSW,202,2.2,-999.0,85,-99.99,,,0.00,Acu-Link.com,2013-03-15 10:58:00,
2013-03-15 07:13:00,33.1,29.4,29.82,SSW,202,4.7,-999.0,86,-99.99,,,0.00,Acu-Link.com,2013-03-15 11:13:00,
2013-03-15 07:28:00,33.1,29.4,29.82,SSW,202,1.1,-999.0,86,-99.99,,,0.00,Acu-Link.com,2013-03-15 11:28:00,
2013-03-15 07:43:00,33.1,29.4,29.82,SW,225,1.1,-999.0,86,-99.99,,,0.00,Acu-Link.com,2013-03-15 11:43:00,
2013-03-15 07:59:00,33.3,29.6,29.82,West,270,2.2,-999.0,86,-99.99,,,0.00,Acu-Link.com,2013-03-15 11:59:00,
2013-03-15 08:14:00,33.3,29.9,29.82,NE,45,1.7,-999.0,87,-99.99,,,0.00,Acu-Link.com,2013-03-15 12:14:00,
2013-03-15 08:29:00,33.4,30.0,29.82,South,180,2.2,-999.0,87,-99.99,,,0.00,Acu-Link.com,2013-03-15 12:29:00,
2013-03-15 08:44:00,33.6,30.2,29.81,West,270,2.7,-999.0,87,-99.99,,,0.00,Acu-Link.com,2013-03-15 12:44:00,
2013-03-15 08:59:00,34.0,30.5,29.82,SW,225,1.7,-999.0,87,-99.99,,,0.00,Acu-Link.com,2013-03-15 12:59:00,
2013-03-15 09:14:00,34.3,30.6,29.81,NE,45,1.1,-999.0,86,-99.99,,,0.00,Acu-Link.com,2013-03-15 13:14:00,
2013-03-15 09:30:00,34.7,30.7,29.80,West,270,2.7,-999.0,85,-99.99,,,0.00,Acu-Link.com,2013-03-15 13:30:00,
2013-03-15 09:45:00,35.1,30.8,29.80,West,270,1.7,-999.0,84,-99.99,,,0.00,Acu-Link.com,2013-03-15 13:45:00,
2013-03-15 10:00:00,35.1,30.8,29.80,ESE,112,2.2,-999.0,84,-99.99,,,0.00,Acu-Link.com,2013-03-15 14:00:00,
2013-03-15 10:15:00,35.1,30.8,29.81,NE,45,2.2,-999.0,84,-99.99,,,0.00,Acu-Link.com,2013-03-15 14:15:00,
2013-03-15 10:30:00,35.1,30.8,29.80,NNE,22,2.2,-999.0,84,-99.99,,,0.00,Acu-Link.com,2013-03-15 14:30:00,
2013-03-15 10:45:00,35.2,30.6,29.81,ESE,112,1.7,-999.0,83,-99.99,,,0.00,Acu-Link.com,2013-03-15 14:45:00,
2013-03-15 11:00:00,35.6,31.0,29.80,SSW,202,1.1,-999.0,83,-99.99,,,0.00,Acu-Link.com,2013-03-15 15:00:00,
2013-03-15 11:15:00,35.8,30.9,29.81,SSE,157,2.2,-999.0,82,-99.99,,,0.00,Acu-Link.com,2013-03-15 15:15:00,
2013-03-15 11:30:00,36.1,30.5,29.82,West,270,0.0,-999.0,80,-99.99,,,0.00,Acu-Link.com,2013-03-15 15:30:00,
2013-03-15 11:46:00,36.3,30.7,29.81,SW,225,4.2,-999.0,80,-99.99,,,0.00,Acu-Link.com,2013-03-15 15:46:00,
2013-03-15 12:16:00,37.6,31.1,29.81,East,90,4.2,-999.0,77,-99.99,,,0.00,Acu-Link.com,2013-03-15 16:16:00,
2013-03-15 12:46:00,37.2,30.7,29.81,WNW,292,2.2,-999.0,77,-99.99,,,0.00,Acu-Link.com,2013-03-15 16:46:00,
2013-03-15 13:01:00,37.2,30.7,29.80,West,270,1.1,-999.0,77,-99.99,,,0.00,Acu-Link.com,2013-03-15 17:01:00,
2013-03-15 13:17:00,37.8,30.9,29.80,NW,315,1.1,-999.0,76,-99.99,,,0.00,Acu-Link.com,2013-03-15 17:17:00,
2013-03-15 13:32:00,38.7,31.5,29.80,WNW,292,1.7,-999.0,75,-99.99,,,0.00,Acu-Link.com,2013-03-15 17:32:00,
2013-03-15 13:47:00,39.2,31.3,29.81,NW,315,1.7,-999.0,73,-99.99,,,0.00,Acu-Link.com,2013-03-15 17:47:00,
2013-03-15 14:02:00,39.7,31.1,29.79,SE,135,1.7,-999.0,71,-99.99,,,0.00,Acu-Link.com,2013-03-15 18:02:00,
2013-03-15 14:17:00,39.6,31.3,29.80,West,270,1.7,-999.0,72,-99.99,,,0.00,Acu-Link.com,2013-03-15 18:17:00,
2013-03-15 14:32:00,39.4,31.1,29.79,WSW,247,2.2,-999.0,72,-99.99,,,0.00,Acu-Link.com,2013-03-15 18:32:00,
2013-03-15 15:02:00,38.5,31.3,29.79,WSW,247,2.2,-999.0,75,-99.99,,,0.00,Acu-Link.com,2013-03-15 19:02:00,
2013-03-15 15:17:00,37.8,31.2,29.79,NNE,22,2.2,-999.0,77,-99.99,,,0.00,Acu-Link.com,2013-03-15 19:17:00,
2013-03-15 15:32:00,37.6,31.7,29.78,WNW,292,2.7,-999.0,79,-99.99,,,0.00,Acu-Link.com,2013-03-15 19:32:00,
2013-03-15 15:48:00,37.2,31.6,29.79,West,270,2.2,-999.0,80,-99.99,,,0.00,Acu-Link.com,2013-03-15 19:48:00,
2013-03-15 16:03:00,37.0,31.7,29.79,SE,135,0.0,-999.0,81,-99.99,,,0.00,Acu-Link.com,2013-03-15 20:03:00,
2013-03-15 16:18:00,37.0,31.4,29.78,SSW,202,0.0,-999.0,80,-99.99,,,0.00,Acu-Link.com,2013-03-15 20:18:00,
2013-03-15 16:33:00,37.0,31.4,29.79,West,270,1.7,-999.0,80,-99.99,,,0.00,Acu-Link.com,2013-03-15 20:33:00,
2013-03-15 16:48:00,37.0,31.4,29.79,North,0,0.0,-999.0,80,-99.99,,,0.00,Acu-Link.com,2013-03-15 20:48:00,
2013-03-15 17:03:00,36.9,31.3,29.79,SSW,202,1.1,-999.0,80,-99.99,,,0.00,Acu-Link.com,2013-03-15 21:03:00,
2013-03-15 17:33:00,37.0,31.4,29.79,East,90,1.7,-999.0,80,-99.99,,,0.00,Acu-Link.com,2013-03-15 21:33:00,
2013-03-15 17:48:00,37.0,31.4,29.80,West,270,2.2,-999.0,80,-99.99,,,0.00,Acu-Link.com,2013-03-15 21:48:00,
2013-03-15 18:19:00,36.7,31.4,29.79,NNW,337,0.0,-999.0,81,-99.99,,,0.00,Acu-Link.com,2013-03-15 22:19:00,
2013-03-15 20:25:00,34.7,30.9,29.79,NNW,337,0.0,-999.0,86,-99.99,,,0.00,Acu-Link.com,2013-03-16 00:25:00,
2013-03-15 20:40:00,34.3,30.8,29.80,NNE,22,0.0,-999.0,87,-99.99,,,0.00,Acu-Link.com,2013-03-16 00:40:00,
2013-03-15 20:55:00,34.0,30.5,29.79,NW,315,0.0,-999.0,87,-99.99,,,0.00,Acu-Link.com,2013-03-16 00:55:00,
2013-03-15 21:10:00,33.3,30.1,29.79,WNW,292,0.0,-999.0,88,-99.99,,,0.00,Acu-Link.com,2013-03-16 01:10:00,
2013-03-15 21:25:00,32.9,30.0,29.79,WSW,247,0.0,-999.0,89,-99.99,,,0.00,Acu-Link.com,2013-03-16 01:25:00,
2013-03-15 21:40:00,32.7,30.1,29.79,SW,225,0.0,-999.0,90,-99.99,,,0.00,Acu-Link.com,2013-03-16 01:40:00,
2013-03-15 21:55:00,32.7,30.4,29.80,NE,45,0.0,-999.0,91,-99.99,,,0.00,Acu-Link.com,2013-03-16 01:55:00,
2013-03-15 22:11:00,32.5,30.2,29.80,NW,315,0.0,-999.0,91,-99.99,,,0.00,Acu-Link.com,2013-03-16 02:11:00,
2013-03-15 23:11:00,33.1,30.5,29.79,ESE,112,4.7,-999.0,90,-99.99,,,0.00,Acu-Link.com,2013-03-16 03:11:00,
2013-03-15 23:26:00,32.4,29.3,29.79,East,90,3.7,-999.0,88,-99.99,,,0.00,Acu-Link.com,2013-03-16 03:26:00,
2013-03-15 23:41:00,32.0,28.6,29.79,East,90,2.7,-999.0,87,-99.99,,,0.00,Acu-Link.com,2013-03-16 03:41:00,
2013-03-15 23:56:00,31.6,28.2,29.79,East,90,1.7,-999.0,87,-99.99,,,0.00,Acu-Link.com,2013-03-16 03:56:00,